Weather

DAILY 7 DAY TOTAL
onrain

Note: Some stations are located near irrigated fields and may also report irrigation

Alliston Mount Forest Blyth Guelph Grand Bend Strathroy Woodstock Belmont Simcoe Leamington Chatham West Lorne






Belmont - Historical Weather Data
Date Max Temp (°C) Min Temp (°C) Avg Temp (°C) Rain (mm) 7Day Rain(mm) Total Rain(mm) Avg RH (%)
5/24/2018 28.3 7.1 18.0 0.0 5.2 29.8 78.5
5/23/2018 25.3 9.5 17.2 0.0 5.2 29.8 79.4
5/22/2018 20.1 11.6 15.4 2.2 5.2 29.8 99.9
5/21/2018 22.7 3.8 14.1 1.4 18.0 27.6 76.9
5/20/2018 18.6 7.4 14.1 0.0 16.6 26.2 96.9
5/19/2018 22.1 10.5 16.2 1.6 16.6 26.2 94.6
5/18/2018 19.0 10.0 14.7 0.0 24.6 24.6 62.1
5/17/2018 27.7 8.2 19.0 0.0 24.6 24.6 79.3
5/16/2018 24.7 7.4 16.3 0.0 24.6 24.6 88.2
5/15/2018 22.4 11.8 16.5 15.0 24.6 24.6 97.3
5/14/2018 19.8 5.6 12.9 0.0 9.6 9.6 99.6
5/13/2018 20.8 6.0 13.0 0.0 9.6 9.6 87.3
5/12/2018 15.5 5.0 9.0 9.6 9.6 9.6 94.6
5/11/2018 10.7 1.5 6.3 0.0 0.0 0.0 91.4
5/10/2018 19.5 6.7 16.1 0.0 0.0 0.0 94.3
5/9/2018 26.7 3.3 16.4 0.0 0.0 0.0 79.5
5/8/2018 22.3 1.9 13.3 0.0 0.0 0.0 72.7
5/7/2018 18.6 5.8 12.8 0.0 0.0 0.0 81.8
5/6/2018 22.3 9.7 14.1 0.0 0.0 0.0 94.0
5/5/2018 24.3 5.9 15.0 0.0 0.0 0.0 81.1
5/4/2018 24.1 6.5 15.7 0.0 0.0 0.0 94.6
5/3/2018 19.7 13.7 16.7 0.0 0.0 0.0 99.9
5/2/2018 26.4 9.1 20.0 0.0 0.0 0.0 69.5
5/1/2018 25.0 0.8 14.6 0.0 0.0 0.0 66.1